| time (UTC) | temp F | wind direction | speed knots | gust knots | rain 1hr in | rain 24hr in | rain mn in | humidity % | barometer mb |
| 20260902170033 | 69 | 194 | 4.3 | 8.7 | 0.00 | 0.05 | 0.00 | 80 | 1021.7 |
| 20260902165512 | 69 | 225 | 4.3 | 7.0 | 0.00 | 0.05 | 0.00 | 81 | 1021.9 |
| 20260902165015 | 68 | 227 | 2.6 | 6.1 | 0.00 | 0.05 | 0.00 | 81 | 1021.9 |
| 20260902164543 | 68 | 178 | 2.6 | 6.1 | 0.00 | 0.05 | 0.00 | 80 | 1021.9 |
| 20260902164003 | 68 | 227 | 3.5 | 7.0 | 0.00 | 0.05 | 0.00 | 81 | 1021.9 |
| 20260902163503 | 68 | 205 | 4.3 | 7.0 | 0.00 | 0.06 | 0.00 | 81 | 1022.0 |
| 20260902163009 | 68 | 161 | 2.6 | 6.1 | 0.00 | 0.06 | 0.00 | 81 | 1022.0 |
| 20260902162504 | 68 | 178 | 0.9 | 7.0 | 0.00 | 0.06 | 0.00 | 81 | 1021.9 |
| 20260902162008 | 68 | 213 | 3.5 | 7.0 | 0.00 | 0.06 | 0.00 | 82 | 1022.0 |
| 20260902161523 | 68 | 124 | 2.6 | 8.7 | 0.00 | 0.06 | 0.00 | 81 | 1022.1 |
| 20260902161020 | 68 | 309 | 2.6 | 8.7 | 0.00 | 0.07 | 0.00 | 82 | 1022.1 |
| 20260902160513 | 68 | 238 | 2.6 | 7.0 | 0.00 | 0.08 | 0.00 | 82 | 1022.0 |
| 20260902160033 | 68 | 202 | 4.3 | 7.0 | 0.00 | 0.09 | 0.00 | 82 | 1022.2 |
| 20260902155510 | 68 | 249 | 1.7 | 4.3 | 0.00 | 0.10 | 0.00 | 82 | 1022.3 |
| 20260902155014 | 68 | 165 | 1.7 | 4.3 | 0.00 | 0.10 | 0.00 | 83 | 1022.3 |
| 20260902154529 | 67 | 196 | 1.7 | 4.3 | 0.00 | 0.10 | 0.00 | 84 | 1022.4 |
| 20260902154012 | 67 | 200 | 1.7 | 4.3 | 0.00 | 0.11 | 0.00 | 82 | 1022.5 |
| 20260902153515 | 67 | 200 | 1.7 | 6.1 | 0.00 | 0.12 | 0.00 | 83 | 1022.5 |
| 20260902153033 | 67 | 221 | 3.5 | 6.1 | 0.00 | 0.14 | 0.00 | 83 | 1022.7 |
| 20260902152516 | 67 | 265 | 1.7 | 7.0 | 0.00 | 0.16 | 0.00 | 84 | 1022.5 |
| 20260902152006 | 67 | 169 | 3.5 | 7.0 | 0.00 | 0.16 | 0.00 | 83 | 1022.6 |
| 20260902151512 | 67 | 236 | 2.6 | 4.3 | 0.00 | 0.16 | 0.00 | 84 | 1022.7 |
| 20260902151005 | 67 | 171 | 2.6 | 5.2 | 0.00 | 0.16 | 0.00 | 84 | 1022.8 |
| 20260902150510 | 67 | 217 | 1.7 | 5.2 | 0.00 | 0.16 | 0.00 | 84 | 1022.9 |
| 20260902150033 | 67 | 200 | 3.5 | 5.2 | 0.00 | 0.16 | 0.00 | 84 | 1022.9 |
| 20260902145511 | 67 | 221 | 1.7 | 5.2 | 0.00 | 0.16 | 0.00 | 84 | 1022.9 |
| 20260902145015 | 67 | 119 | 0.9 | 5.2 | 0.00 | 0.16 | 0.00 | 84 | 1023.0 |
| 20260902144529 | 67 | 255 | 1.7 | 3.5 | 0.00 | 0.16 | 0.00 | 84 | 1022.8 |
| 20260902144014 | 67 | 178 | 1.7 | 7.0 | 0.00 | 0.16 | 0.00 | 85 | 1022.8 |
| 20260902143514 | 67 | 146 | 1.7 | 7.8 | 0.00 | 0.16 | 0.00 | 84 | 1022.8 |
| 20260902143030 | 67 | 279 | 2.6 | 7.8 | 0.00 | 0.16 | 0.00 | 84 | 1022.7 |
| 20260902142516 | 67 | 294 | 3.5 | 7.8 | 0.00 | 0.16 | 0.00 | 83 | 1022.7 |
| 20260902142013 | 67 | 219 | 3.5 | 7.8 | 0.00 | 0.16 | 0.00 | 84 | 1022.7 |
| 20260902141535 | 67 | 203 | 2.6 | 7.8 | 0.00 | 0.16 | 0.00 | 84 | 1022.6 |
| 20260902141018 | 67 | 237 | 5.2 | 7.8 | 0.00 | 0.16 | 0.00 | 83 | 1022.5 |
| 20260902140507 | 67 | 236 | 4.3 | 9.6 | 0.00 | 0.16 | 0.00 | 83 | 1022.5 |
| 20260902140017 | 66 | 242 | 5.2 | 9.6 | 0.00 | 0.16 | 0.00 | 84 | 1022.5 |
| 20260902135514 | 66 | 223 | 2.6 | 6.1 | 0.00 | 0.16 | 0.00 | 85 | 1022.4 |
| 20260902135011 | 66 | 221 | 2.6 | 6.1 | 0.00 | 0.16 | 0.00 | 85 | 1022.5 |
| 20260902134523 | 66 | 250 | 3.5 | 6.1 | 0.00 | 0.16 | 0.00 | 86 | 1022.4 |
| 20260902134012 | 66 | 51 | 0.9 | 5.2 | 0.00 | 0.16 | 0.00 | 86 | 1022.6 |
| 20260902133519 | 66 | 196 | 1.7 | 5.2 | 0.00 | 0.16 | 0.00 | 87 | 1022.4 |
| 20260902133033 | 66 | 171 | 1.7 | 8.7 | 0.00 | 0.16 | 0.00 | 85 | 1022.3 |
| 20260902132515 | 66 | 242 | 1.7 | 8.7 | 0.00 | 0.16 | 0.00 | 86 | 1022.0 |
| 20260902132016 | 65 | 196 | 3.5 | 7.0 | 0.00 | 0.16 | 0.00 | 86 | 1022.0 |
| 20260902131528 | 65 | 231 | 1.7 | 4.3 | 0.00 | 0.16 | 0.00 | 89 | 1022.1 |
| 20260902131016 | 65 | 205 | 1.7 | 4.3 | 0.00 | 0.16 | 0.00 | 89 | 1022.0 |
| 20260902130516 | 65 | 221 | 1.7 | 4.3 | 0.00 | 0.16 | 0.00 | 89 | 1022.1 |
| 20260902130033 | 65 | 9 | 1.7 | 3.5 | 0.00 | 0.16 | 0.00 | 90 | 1022.1 |
| 20260902125520 | 65 | 212 | 1.7 | 3.5 | 0.00 | 0.16 | 0.00 | 90 | 1022.1 |
| 20260902125017 | 64 | 221 | 0.9 | 3.5 | 0.00 | 0.16 | 0.00 | 90 | 1022.2 |
| 20260902124518 | 65 | 205 | 1.7 | 3.5 | 0.00 | 0.16 | 0.00 | 91 | 1022.2 |
| 20260902124008 | 64 | 205 | 0.9 | 3.5 | 0.00 | 0.16 | 0.00 | 91 | 1022.2 |
| 20260902123511 | 64 | 193 | 1.7 | 4.3 | 0.00 | 0.16 | 0.00 | 91 | 1022.1 |
| 20260902123026 | 64 | 137 | 0.9 | 4.3 | 0.00 | 0.16 | 0.00 | 92 | 1022.1 |
| 20260902122514 | 64 | 232 | 0.9 | 1.7 | 0.00 | 0.16 | 0.00 | 93 | 1022.2 |
| 20260902122011 | 63 | 9 | 0.0 | 1.7 | 0.00 | 0.16 | 0.00 | 93 | 1022.2 |
| 20260902121527 | 63 | 153 | 0.0 | 2.6 | 0.00 | 0.16 | 0.00 | 94 | 1022.1 |
| 20260902121017 | 63 | 205 | 0.9 | 2.6 | 0.00 | 0.16 | 0.00 | 94 | 1022.0 |
| 20260902120516 | 63 | 102 | 0.0 | 2.6 | 0.00 | 0.17 | 0.00 | 94 | 1022.1 |
| 20260902120033 | 63 | 254 | 0.9 | 1.7 | 0.00 | 0.17 | 0.00 | 95 | 1022.2 |
| 20260902115521 | 63 | 221 | 0.0 | 1.7 | 0.00 | 0.17 | 0.00 | 94 | 1022.2 |
| 20260902115016 | 63 | 67 | 0.0 | 1.7 | 0.00 | 0.17 | 0.00 | 95 | 1022.3 |
| 20260902114539 | 63 | 51 | 0.9 | 1.7 | 0.00 | 0.18 | 0.00 | 94 | 1022.2 |
| 20260902114014 | 63 | 205 | 0.0 | 2.6 | 0.00 | 0.18 | 0.00 | 95 | 1022.2 |
| 20260902113519 | 62 | 205 | 0.9 | 2.6 | 0.00 | 0.19 | 0.00 | 95 | 1022.2 |
| 20260902113022 | 62 | 221 | 0.9 | 2.6 | 0.00 | 0.20 | 0.00 | 94 | 1022.2 |
| 20260902112513 | 62 | 51 | 0.9 | 3.5 | 0.00 | 0.21 | 0.00 | 94 | 1022.3 |
| 20260902112013 | 62 | 221 | 0.9 | 3.5 | 0.00 | 0.23 | 0.00 | 94 | 1022.5 |
| 20260902111524 | 62 | 51 | 0.9 | 2.6 | 0.00 | 0.25 | 0.00 | 94 | 1022.5 |
| 20260902111019 | 62 | 214 | 0.9 | 1.7 | 0.00 | 0.26 | 0.00 | 94 | 1022.4 |
| 20260902110513 | 62 | 193 | 0.9 | 1.7 | 0.00 | 0.28 | 0.00 | 94 | 1022.3 |
| 20260902110028 | 62 | 178 | 0.0 | 1.7 | 0.00 | 0.30 | 0.00 | 94 | 1022.4 |
| 20260902105516 | 62 | 178 | 0.0 | 1.7 | 0.00 | 0.31 | 0.00 | 94 | 1022.3 |
| 20260902105021 | 62 | 51 | 0.0 | 1.7 | 0.00 | 0.32 | 0.00 | 94 | 1022.3 |
| 20260902104539 | 62 | 221 | 0.0 | 1.7 | 0.00 | 0.34 | 0.00 | 94 | 1022.2 |
| 20260902104019 | 62 | 238 | 0.0 | 1.7 | 0.00 | 0.35 | 0.00 | 94 | 1022.1 |
| 20260902103524 | 62 | 196 | 0.9 | 1.7 | 0.00 | 0.36 | 0.00 | 94 | 1022.1 |
| 20260902103032 | 62 | 238 | 0.0 | 1.7 | 0.00 | 0.37 | 0.00 | 94 | 1022.2 |
| 20260902102517 | 62 | 238 | 0.0 | 1.7 | 0.00 | 0.37 | 0.00 | 94 | 1022.1 |
| 20260902102019 | 62 | 265 | 0.0 | 1.7 | 0.00 | 0.37 | 0.00 | 94 | 1022.0 |
| 20260902101537 | 62 | 238 | 0.0 | 1.7 | 0.00 | 0.38 | 0.00 | 94 | 1022.0 |
| 20260902101016 | 62 | 9 | 0.0 | 1.7 | 0.00 | 0.38 | 0.00 | 94 | 1021.9 |
| 20260902100503 | 62 | 291 | 0.0 | 1.7 | 0.00 | 0.38 | 0.00 | 94 | 1021.8 |
| 20260902100007 | 62 | 9 | 0.0 | 1.7 | 0.00 | 0.38 | 0.00 | 94 | 1021.7 |
| 20260902095505 | 62 | 334 | 0.0 | 1.7 | 0.00 | 0.38 | 0.00 | 94 | 1021.8 |
| 20260902095004 | 62 | 51 | 0.0 | 0.9 | 0.00 | 0.38 | 0.00 | 94 | 1021.6 |
| 20260902094510 | 62 | 221 | 0.0 | 0.9 | 0.00 | 0.38 | 0.00 | 94 | 1021.7 |
| 20260902094007 | 62 | 9 | 0.0 | 2.6 | 0.00 | 0.38 | 0.00 | 94 | 1021.7 |
| 20260902093508 | 62 | 51 | 0.0 | 2.6 | 0.00 | 0.38 | 0.00 | 94 | 1021.7 |
| 20260902093024 | 62 | 9 | 0.9 | 1.7 | 0.00 | 0.38 | 0.00 | 94 | 1021.7 |
| 20260902092507 | 62 | 41 | 0.9 | 2.6 | 0.00 | 0.38 | 0.00 | 94 | 1021.7 |
| 20260902092011 | 62 | 9 | 0.9 | 2.6 | 0.00 | 0.38 | 0.00 | 94 | 1021.6 |
| 20260902091526 | 63 | 93 | 0.0 | 1.7 | 0.00 | 0.38 | 0.00 | 94 | 1021.6 |
| 20260902091012 | 62 | 265 | 0.0 | 0.9 | 0.00 | 0.38 | 0.00 | 94 | 1021.6 |
| 20260902090503 | 63 | 93 | 0.0 | 0.9 | 0.00 | 0.38 | 0.00 | 94 | 1021.4 |
| 20260902090005 | 63 | 265 | 0.0 | 0.9 | 0.00 | 0.38 | 0.00 | 94 | 1021.4 |
| 20260902085502 | 63 | 265 | 0.0 | 2.6 | 0.00 | 0.38 | 0.00 | 94 | 1021.4 |
| 20260902085004 | 63 | 265 | 0.0 | 2.6 | 0.00 | 0.38 | 0.00 | 94 | 1021.3 |
| 20260902084507 | 63 | 316 | 0.9 | 2.6 | 0.00 | 0.38 | 0.00 | 94 | 1021.2 |
| 20260902084004 | 63 | 338 | 0.9 | 2.6 | 0.00 | 0.38 | 0.00 | 94 | 1021.1 |
| 20260902083504 | 63 | 44 | 0.0 | 1.7 | 0.00 | 0.38 | 0.00 | 94 | 1021.2 |
| 20260902083010 | 63 | 51 | 0.0 | 1.7 | 0.00 | 0.38 | 0.00 | 94 | 1021.1 |
| 20260902082506 | 63 | 137 | 0.0 | 1.7 | 0.00 | 0.38 | 0.00 | 94 | 1021.2 |
| 20260902082009 | 63 | 51 | 0.0 | 1.7 | 0.00 | 0.38 | 0.00 | 94 | 1021.3 |
| 20260902081528 | 63 | 93 | 0.0 | 1.7 | 0.00 | 0.38 | 0.00 | 94 | 1021.2 |
| 20260902081017 | 63 | 216 | 0.0 | 1.7 | 0.00 | 0.38 | 0.00 | 94 | 1021.2 |
| 20260902080513 | 63 | 232 | 0.9 | 2.6 | 0.00 | 0.38 | 0.00 | 94 | 1021.2 |
| 20260902080027 | 63 | 232 | 0.9 | 2.6 | 0.00 | 0.38 | 0.00 | 94 | 1021.3 |
| 20260902075515 | 63 | 165 | 0.9 | 3.5 | 0.00 | 0.38 | 0.00 | 94 | 1021.3 |
| 20260902075002 | 63 | 178 | 0.9 | 3.5 | 0.00 | 0.38 | 0.00 | 94 | 1021.4 |
| 20260902074507 | 63 | 51 | 0.9 | 2.6 | 0.00 | 0.38 | 0.00 | 94 | 1021.4 |
| 20260902074003 | 63 | 221 | 0.9 | 1.7 | 0.00 | 0.38 | 0.00 | 94 | 1021.4 |
| 20260902073506 | 63 | 51 | 0.0 | 1.7 | 0.00 | 0.38 | 0.00 | 94 | 1021.3 |
| 20260902073010 | 63 | 93 | 0.9 | 1.7 | 0.00 | 0.38 | 0.00 | 94 | 1021.3 |
| 20260902072508 | 63 | 93 | 0.0 | 1.7 | 0.00 | 0.38 | 0.00 | 94 | 1021.4 |
| 20260902072005 | 63 | 265 | 0.0 | 1.7 | 0.00 | 0.38 | 0.00 | 94 | 1021.3 |
| 20260902071514 | 63 | 298 | 0.0 | 1.7 | 0.00 | 0.38 | 0.00 | 94 | 1021.3 |
| 20260902071009 | 63 | 265 | 0.0 | 1.7 | 0.00 | 0.38 | 0.00 | 94 | 1021.3 |
| 20260902070507 | 63 | 178 | 0.0 | 0.9 | 0.00 | 0.38 | 0.00 | 94 | 1021.4 |
| 20260902070009 | 63 | 178 | 0.0 | 1.7 | 0.00 | 0.38 | 0.00 | 94 | 1021.4 |
| 20260902065503 | 63 | 93 | 0.0 | 1.7 | 0.00 | 0.38 | 0.00 | 94 | 1021.5 |
| 20260902065014 | 63 | 67 | 0.0 | 1.7 | 0.00 | 0.38 | 0.00 | 94 | 1021.6 |
| 20260902064508 | 63 | 80 | 0.0 | 1.7 | 0.00 | 0.38 | 0.00 | 94 | 1021.6 |
| 20260902064002 | 63 | 51 | 0.0 | 1.7 | 0.00 | 0.38 | 0.00 | 94 | 1021.6 |
| 20260902063516 | 63 | 41 | 0.9 | 1.7 | 0.00 | 0.38 | 0.00 | 94 | 1021.5 |
| 20260902063008 | 63 | 51 | 0.0 | 1.7 | 0.00 | 0.38 | 0.00 | 94 | 1021.5 |
| 20260902062505 | 63 | 51 | 0.0 | 1.7 | 0.00 | 0.38 | 0.00 | 94 | 1021.5 |
| 20260902062006 | 63 | 265 | 0.0 | 1.7 | 0.00 | 0.38 | 0.00 | 94 | 1021.4 |
| 20260902061527 | 63 | 205 | 0.0 | 0.9 | 0.00 | 0.38 | 0.00 | 94 | 1021.4 |
| 20260902061010 | 63 | 9 | 0.0 | 0.9 | 0.00 | 0.38 | 0.00 | 94 | 1021.4 |
| 20260902060508 | 63 | 221 | 0.0 | 1.7 | 0.00 | 0.38 | 0.00 | 94 | 1021.4 |
| 20260902060018 | 63 | 238 | 0.0 | 1.7 | 0.00 | 0.38 | 0.00 | 94 | 1021.4 |
| 20260902055513 | 63 | 41 | 0.0 | 1.7 | 0.00 | 0.38 | 0.00 | 94 | 1021.3 |
| 20260902055013 | 63 | 44 | 0.9 | 1.7 | 0.00 | 0.38 | 0.00 | 94 | 1021.2 |
| 20260902054504 | 63 | 80 | 0.0 | 1.7 | 0.00 | 0.38 | 0.00 | 94 | 1021.2 |
| 20260902054003 | 63 | 93 | 0.0 | 1.7 | 0.00 | 0.38 | 0.00 | 94 | 1021.2 |
| 20260902053502 | 63 | 9 | 0.0 | 1.7 | 0.00 | 0.38 | 0.00 | 94 | 1021.1 |
| 20260902053005 | 63 | 93 | 0.0 | 1.7 | 0.00 | 0.38 | 0.00 | 94 | 1021.1 |
| 20260902052517 | 63 | 291 | 0.0 | 2.6 | 0.00 | 0.38 | 0.00 | 94 | 1021.1 |
| 20260902052003 | 63 | 238 | 0.9 | 3.5 | 0.00 | 0.38 | 0.00 | 94 | 1021.0 |
| 20260902051509 | 63 | 265 | 0.9 | 3.5 | 0.00 | 0.38 | 0.00 | 94 | 1021.0 |
| 20260902051007 | 63 | 209 | 1.7 | 2.6 | 0.00 | 0.38 | 0.00 | 94 | 1020.9 |
| 20260902050507 | 63 | 214 | 0.9 | 1.7 | 0.00 | 0.38 | 0.00 | 94 | 1020.7 |
| 20260902050016 | 63 | 221 | 0.9 | 1.7 | 0.00 | 0.38 | 0.00 | 94 | 1020.7 |
| 20260902045508 | 63 | 205 | 0.0 | 1.7 | 0.00 | 0.38 | 0.00 | 94 | 1020.7 |
| 20260902045011 | 63 | 212 | 0.9 | 1.7 | 0.00 | 0.38 | 0.00 | 94 | 1020.7 |
| 20260902044527 | 63 | 178 | 0.9 | 1.7 | 0.00 | 0.38 | 0.00 | 94 | 1020.6 |
| 20260902044013 | 63 | 212 | 0.0 | 1.7 | 0.00 | 0.38 | 0.00 | 94 | 1020.7 |
| 20260902043511 | 63 | 215 | 0.9 | 1.7 | 0.00 | 0.38 | 0.00 | 94 | 1020.6 |
| 20260902043042 | 63 | 165 | 0.0 | 1.7 | 0.00 | 0.38 | 0.00 | 94 | 1020.4 |
| 20260902042505 | 63 | 9 | 0.0 | 1.7 | 0.00 | 0.38 | 0.00 | 94 | 1020.5 |
| 20260902042002 | 63 | 9 | 0.0 | 2.6 | 0.00 | 0.38 | 0.00 | 94 | 1020.5 |
| 20260902041508 | 63 | 334 | 0.0 | 2.6 | 0.00 | 0.38 | 0.00 | 94 | 1020.5 |
| 20260902041003 | 63 | 9 | 0.9 | 2.6 | 0.00 | 0.38 | 0.00 | 93 | 1020.3 |
| 20260902040509 | 63 | 9 | 0.9 | 2.6 | 0.00 | 0.38 | 0.00 | 93 | 1020.2 |
| 20260902040014 | 63 | 9 | 0.9 | 1.7 | 0.00 | 0.38 | 0.00 | 93 | 1020.1 |
| 20260902035513 | 63 | 9 | 0.0 | 1.7 | 0.00 | 0.38 | 0.38 | 93 | 1020.0 |
| 20260902035008 | 63 | 9 | 0.9 | 1.7 | 0.00 | 0.38 | 0.38 | 93 | 1020.0 |
| 20260902034520 | 63 | 9 | 0.9 | 1.7 | 0.00 | 0.38 | 0.38 | 93 | 1019.9 |
| 20260902034012 | 63 | 9 | 0.0 | 2.6 | 0.00 | 0.38 | 0.38 | 93 | 1020.0 |
| 20260902033511 | 63 | 9 | 0.9 | 2.6 | 0.00 | 0.38 | 0.38 | 93 | 1020.0 |
| 20260902033027 | 63 | 41 | 0.9 | 2.6 | 0.00 | 0.38 | 0.38 | 93 | 1019.9 |
| 20260902032516 | 63 | 19 | 1.7 | 2.6 | 0.00 | 0.38 | 0.38 | 93 | 1019.9 |
| 20260902032021 | 63 | 265 | 0.0 | 1.7 | 0.00 | 0.38 | 0.38 | 93 | 1019.8 |
| 20260902031537 | 63 | 67 | 0.0 | 1.7 | 0.00 | 0.38 | 0.38 | 93 | 1019.9 |
| 20260902031006 | 63 | 34 | 0.9 | 2.6 | 0.00 | 0.38 | 0.38 | 93 | 1019.9 |
| 20260902030502 | 63 | 9 | 0.0 | 2.6 | 0.00 | 0.38 | 0.38 | 93 | 1020.0 |
| 20260902030008 | 63 | 265 | 0.0 | 2.6 | 0.00 | 0.38 | 0.38 | 93 | 1019.9 |
| 20260902025506 | 63 | 119 | 0.9 | 3.5 | 0.00 | 0.38 | 0.38 | 93 | 1019.9 |
| 20260902025010 | 63 | 247 | 1.7 | 3.5 | 0.00 | 0.38 | 0.38 | 93 | 1019.9 |
| 20260902024515 | 64 | 238 | 1.7 | 3.5 | 0.00 | 0.38 | 0.38 | 93 | 1019.9 |
| 20260902024007 | 64 | 221 | 0.0 | 2.6 | 0.00 | 0.38 | 0.38 | 93 | 1019.8 |
| 20260902023509 | 64 | 257 | 0.9 | 4.3 | 0.00 | 0.38 | 0.38 | 93 | 1019.9 |
| 20260902023032 | 64 | 325 | 0.9 | 6.1 | 0.00 | 0.38 | 0.38 | 93 | 1019.9 |
| 20260902022510 | 64 | 238 | 1.7 | 6.1 | 0.00 | 0.38 | 0.38 | 93 | 1019.8 |
| 20260902022015 | 64 | 212 | 3.5 | 6.1 | 0.00 | 0.38 | 0.38 | 93 | 1019.7 |
| 20260902021527 | 64 | 234 | 1.7 | 3.5 | 0.00 | 0.38 | 0.38 | 93 | 1019.9 |
| 20260902021013 | 64 | 153 | 0.0 | 2.6 | 0.00 | 0.38 | 0.38 | 93 | 1020.0 |
| 20260902020514 | 64 | 250 | 1.7 | 2.6 | 0.00 | 0.38 | 0.38 | 93 | 1020.0 |
| 20260902020032 | 64 | 250 | 0.9 | 2.6 | 0.00 | 0.38 | 0.38 | 93 | 1019.9 |
| 20260902015516 | 64 | 325 | 0.9 | 2.6 | 0.00 | 0.38 | 0.38 | 93 | 1020.0 |
| 20260902015006 | 64 | 309 | 0.0 | 1.7 | 0.00 | 0.38 | 0.38 | 93 | 1019.9 |
| 20260902014518 | 64 | 51 | 0.9 | 2.6 | 0.00 | 0.38 | 0.38 | 93 | 1019.8 |
| 20260902014008 | 64 | 178 | 0.0 | 2.6 | 0.00 | 0.38 | 0.38 | 93 | 1019.8 |
| 20260902013507 | 64 | 9 | 0.9 | 2.6 | 0.00 | 0.38 | 0.38 | 93 | 1019.9 |
| 20260902013020 | 64 | 51 | 0.9 | 2.6 | 0.00 | 0.38 | 0.38 | 93 | 1019.8 |
| 20260902012513 | 64 | 22 | 0.0 | 2.6 | 0.00 | 0.38 | 0.38 | 93 | 1019.8 |
| 20260902012013 | 64 | 34 | 0.0 | 2.6 | 0.00 | 0.38 | 0.38 | 93 | 1019.9 |
| 20260902011524 | 64 | 319 | 1.7 | 2.6 | 0.00 | 0.38 | 0.38 | 93 | 1019.8 |
| 20260902011013 | 64 | 51 | 0.0 | 3.5 | 0.00 | 0.38 | 0.38 | 93 | 1019.8 |
| 20260902010514 | 64 | 178 | 0.0 | 3.5 | 0.00 | 0.38 | 0.38 | 93 | 1019.7 |
| 20260902010028 | 64 | 298 | 0.0 | 2.6 | 0.00 | 0.38 | 0.38 | 93 | 1019.7 |
| 20260902005519 | 64 | 291 | 0.0 | 1.7 | 0.01 | 0.38 | 0.38 | 93 | 1019.7 |
| 20260902005016 | 64 | 9 | 0.0 | 3.5 | 0.01 | 0.38 | 0.38 | 93 | 1019.5 |
| 20260902004535 | 64 | 282 | 0.9 | 3.5 | 0.01 | 0.38 | 0.38 | 93 | 1019.4 |
| 20260902004018 | 64 | 319 | 0.9 | 2.6 | 0.01 | 0.38 | 0.38 | 93 | 1019.3 |
| 20260902003507 | 65 | 325 | 0.9 | 3.5 | 0.01 | 0.38 | 0.38 | 93 | 1019.2 |
| 20260902003013 | 65 | 178 | 0.0 | 3.5 | 0.01 | 0.38 | 0.38 | 93 | 1019.2 |
| 20260902002511 | 65 | 146 | 0.9 | 3.5 | 0.01 | 0.38 | 0.38 | 93 | 1019.1 |
| 20260902002009 | 65 | 309 | 0.9 | 3.5 | 0.01 | 0.38 | 0.38 | 93 | 1019.0 |
| 20260902001521 | 65 | 190 | 0.9 | 3.5 | 0.01 | 0.38 | 0.38 | 93 | 1018.9 |
| 20260902001013 | 65 | 158 | 1.7 | 3.5 | 0.01 | 0.38 | 0.38 | 93 | 1018.8 |
| 20260902000511 | 65 | 221 | 0.9 | 3.5 | 0.02 | 0.38 | 0.38 | 93 | 1018.6 |
| 20260902000031 | 65 | 221 | 0.9 | 3.5 | 0.02 | 0.38 | 0.38 | 93 | 1018.8 |
| 20260901235512 | 65 | 247 | 1.7 | 3.5 | 0.01 | 0.37 | 0.37 | 93 | 1018.7 |
| 20260901235019 | 65 | 229 | 0.0 | 2.6 | 0.01 | 0.37 | 0.37 | 93 | 1018.5 |
| 20260901234531 | 65 | 291 | 0.0 | 4.3 | 0.01 | 0.37 | 0.37 | 93 | 1018.5 |
| 20260901234015 | 65 | 238 | 0.9 | 4.3 | 0.01 | 0.37 | 0.37 | 93 | 1018.4 |
| 20260901233519 | 66 | 146 | 1.7 | 4.3 | 0.01 | 0.37 | 0.37 | 93 | 1018.3 |
| 20260901233031 | 66 | 249 | 1.7 | 2.6 | 0.01 | 0.37 | 0.37 | 93 | 1018.5 |
| 20260901232517 | 66 | 247 | 1.7 | 4.3 | 0.01 | 0.37 | 0.37 | 93 | 1018.5 |
| 20260901232017 | 66 | 217 | 2.6 | 4.3 | 0.01 | 0.37 | 0.37 | 93 | 1018.5 |
| 20260901231519 | 66 | 232 | 1.7 | 6.1 | 0.01 | 0.37 | 0.37 | 93 | 1018.5 |
| 20260901231012 | 66 | 234 | 3.5 | 7.0 | 0.01 | 0.37 | 0.37 | 93 | 1018.5 |
| 20260901230510 | 66 | 247 | 3.5 | 7.0 | 0.00 | 0.36 | 0.36 | 93 | 1018.5 |
| 20260901230024 | 66 | 247 | 0.9 | 2.6 | 0.00 | 0.36 | 0.36 | 93 | 1018.4 |
| 20260901225512 | 66 | 26 | 0.0 | 2.6 | 0.00 | 0.36 | 0.36 | 93 | 1018.4 |
| 20260901225014 | 66 | 51 | 0.0 | 2.6 | 0.00 | 0.36 | 0.36 | 93 | 1018.4 |
| 20260901224530 | 66 | 9 | 0.0 | 2.6 | 0.00 | 0.36 | 0.36 | 93 | 1018.5 |
| 20260901224016 | 66 | 9 | 0.0 | 3.5 | 0.00 | 0.36 | 0.36 | 93 | 1018.5 |
| 20260901223513 | 66 | 38 | 0.9 | 3.5 | 0.00 | 0.36 | 0.36 | 93 | 1018.4 |
| 20260901223030 | 66 | 9 | 0.9 | 2.6 | 0.00 | 0.36 | 0.36 | 93 | 1018.5 |
| 20260901222517 | 66 | 34 | 0.9 | 3.5 | 0.00 | 0.36 | 0.36 | 93 | 1018.5 |
| 20260901222016 | 66 | 9 | 0.9 | 4.3 | 0.00 | 0.36 | 0.36 | 93 | 1018.5 |
| 20260901221601 | 66 | 17 | 2.6 | 3.5 | 0.00 | 0.36 | 0.36 | 93 | 1018.4 |
| 20260901221001 | 66 | 18 | 2.6 | 3.5 | 0.00 | 0.36 | 0.36 | 93 | 1018.3 |
| 20260901220502 | 66 | 24 | 1.7 | 3.5 | 0.00 | 0.36 | 0.36 | 93 | 1018.3 |
| 20260901220004 | 66 | 51 | 0.0 | 3.5 | 0.00 | 0.36 | 0.36 | 93 | 1018.2 |
| 20260901215502 | 66 | 93 | 0.0 | 6.1 | 0.00 | 0.36 | 0.36 | 93 | 1018.2 |
| 20260901215005 | 66 | 80 | 1.7 | 6.1 | 0.00 | 0.36 | 0.36 | 93 | 1018.2 |
| 20260901214503 | 66 | 22 | 0.9 | 4.3 | 0.00 | 0.36 | 0.36 | 93 | 1018.2 |
| 20260901214002 | 66 | 30 | 1.7 | 7.8 | 0.00 | 0.36 | 0.36 | 93 | 1018.2 |
| 20260901213503 | 66 | 34 | 2.6 | 7.8 | 0.00 | 0.36 | 0.36 | 93 | 1018.1 |
| 20260901213019 | 66 | 9 | 2.6 | 4.3 | 0.00 | 0.36 | 0.36 | 93 | 1018.1 |
| 20260901212511 | 67 | 26 | 1.7 | 4.3 | 0.00 | 0.36 | 0.36 | 93 | 1018.1 |
| 20260901212006 | 67 | 319 | 0.9 | 4.3 | 0.00 | 0.36 | 0.36 | 93 | 1018.1 |
| 20260901211516 | 67 | 26 | 1.7 | 4.3 | 0.00 | 0.36 | 0.36 | 93 | 1018.1 |
| 20260901211007 | 67 | 316 | 0.9 | 7.0 | 0.00 | 0.36 | 0.36 | 93 | 1018.1 |
| 20260901210507 | 67 | 32 | 1.7 | 7.0 | 0.00 | 0.36 | 0.36 | 93 | 1018.0 |
| 20260901210019 | 67 | 48 | 2.6 | 5.2 | 0.00 | 0.36 | 0.36 | 93 | 1017.9 |
| 20260901205502 | 67 | 19 | 0.9 | 4.3 | 0.00 | 0.36 | 0.36 | 93 | 1018.1 |
| 20260901205001 | 66 | 26 | 1.7 | 5.2 | 0.00 | 0.36 | 0.36 | 93 | 1018.0 |
| 20260901204512 | 66 | 67 | 1.7 | 5.2 | 0.00 | 0.36 | 0.36 | 93 | 1017.9 |
| 20260901204004 | 66 | 47 | 3.5 | 7.0 | 0.00 | 0.36 | 0.36 | 93 | 1017.9 |
| 20260901203503 | 66 | 47 | 3.5 | 7.0 | 0.00 | 0.36 | 0.36 | 93 | 1017.9 |
| 20260901203008 | 66 | 9 | 3.5 | 6.1 | 0.00 | 0.36 | 0.36 | 93 | 1017.9 |
| 20260901202502 | 66 | 31 | 3.5 | 7.0 | 0.00 | 0.36 | 0.36 | 93 | 1017.8 |
| 20260901202004 | 66 | 43 | 3.5 | 8.7 | 0.00 | 0.36 | 0.36 | 93 | 1017.8 |
| 20260901201510 | 66 | 18 | 3.5 | 8.7 | 0.00 | 0.36 | 0.36 | 93 | 1017.8 |
| 20260901201007 | 66 | 21 | 4.3 | 10.4 | 0.00 | 0.36 | 0.36 | 93 | 1017.8 |
| 20260901200509 | 66 | 19 | 4.3 | 10.4 | 0.00 | 0.36 | 0.36 | 93 | 1017.7 |
| 20260901200029 | 66 | 338 | 3.5 | 8.7 | 0.00 | 0.36 | 0.36 | 94 | 1017.7 |
| 20260901195507 | 66 | 342 | 3.5 | 8.7 | 0.00 | 0.36 | 0.36 | 94 | 1017.7 |
| 20260901195007 | 66 | 45 | 3.5 | 7.8 | 0.00 | 0.36 | 0.36 | 94 | 1017.7 |
| 20260901194525 | 66 | 36 | 3.5 | 7.8 | 0.00 | 0.36 | 0.36 | 94 | 1017.8 |
| 20260901194006 | 66 | 38 | 1.7 | 8.7 | 0.00 | 0.36 | 0.36 | 94 | 1017.7 |
| 20260901193503 | 66 | 346 | 3.5 | 10.4 | 0.00 | 0.36 | 0.36 | 94 | 1017.8 |
| 20260901193004 | 66 | 19 | 5.2 | 10.4 | 0.00 | 0.36 | 0.36 | 95 | 1017.7 |
| 20260901192503 | 66 | 18 | 4.3 | 9.6 | 0.00 | 0.36 | 0.36 | 95 | 1017.7 |
| 20260901192003 | 66 | 44 | 3.5 | 7.8 | 0.00 | 0.36 | 0.36 | 94 | 1017.8 |
| 20260901191518 | 66 | 63 | 4.3 | 9.6 | 0.00 | 0.36 | 0.36 | 94 | 1017.8 |
| 20260901191002 | 66 | 20 | 4.3 | 9.6 | 0.00 | 0.36 | 0.36 | 95 | 1017.8 |
| 20260901190513 | 66 | 17 | 6.1 | 11.3 | 0.00 | 0.36 | 0.36 | 94 | 1017.8 |
| 20260901190020 | 66 | 51 | 4.3 | 11.3 | 0.01 | 0.36 | 0.36 | 95 | 1017.8 |
| 20260901185508 | 66 | 45 | 6.1 | 11.3 | 0.01 | 0.36 | 0.36 | 95 | 1017.8 |
| 20260901185008 | 65 | 44 | 5.2 | 10.4 | 0.01 | 0.36 | 0.36 | 95 | 1017.8 |
| 20260901184518 | 65 | 9 | 5.2 | 10.4 | 0.01 | 0.36 | 0.36 | 95 | 1017.8 |
| 20260901184010 | 66 | 38 | 6.1 | 9.6 | 0.02 | 0.36 | 0.36 | 95 | 1017.8 |
| 20260901183510 | 65 | 32 | 4.3 | 9.6 | 0.02 | 0.36 | 0.36 | 95 | 1017.9 |
| 20260901183033 | 65 | 33 | 2.6 | 7.8 | 0.02 | 0.36 | 0.36 | 95 | 1017.9 |
| 20260901182512 | 65 | 346 | 4.3 | 7.8 | 0.02 | 0.36 | 0.36 | 95 | 1017.9 |
| 20260901182003 | 65 | 9 | 3.5 | 7.8 | 0.02 | 0.36 | 0.36 | 95 | 1017.9 |
| 20260901181505 | 65 | 64 | 1.7 | 7.8 | 0.03 | 0.36 | 0.36 | 95 | 1017.9 |
| 20260901181002 | 65 | 347 | 4.3 | 7.8 | 0.03 | 0.36 | 0.36 | 95 | 1017.9 |
| 20260901180502 | 65 | 43 | 3.5 | 8.7 | 0.03 | 0.36 | 0.36 | 95 | 1017.9 |
| 20260901180010 | 65 | 19 | 2.6 | 8.7 | 0.02 | 0.35 | 0.35 | 95 | 1017.8 |
| 20260901175513 | 65 | 34 | 5.2 | 8.7 | 0.02 | 0.35 | 0.35 | 95 | 1017.8 |
| 20260901175006 | 65 | 48 | 4.3 | 8.7 | 0.02 | 0.35 | 0.35 | 95 | 1017.8 |
| 20260901174529 | 64 | 51 | 4.3 | 8.7 | 0.02 | 0.35 | 0.35 | 95 | 1017.7 |
| 20260901174008 | 64 | 26 | 5.2 | 13.0 | 0.01 | 0.34 | 0.34 | 95 | 1017.7 |
| 20260901173509 | 64 | 34 | 4.3 | 13.0 | 0.02 | 0.34 | 0.34 | 95 | 1017.7 |
| 20260901173022 | 64 | 93 | 2.6 | 8.7 | 0.02 | 0.34 | 0.34 | 95 | 1017.7 |
| 20260901172516 | 64 | 25 | 4.3 | 9.6 | 0.02 | 0.34 | 0.34 | 94 | 1017.7 |
| 20260901172013 | 64 | 38 | 5.2 | 9.6 | 0.02 | 0.34 | 0.34 | 95 | 1017.6 |
| 20260901171527 | 64 | 63 | 6.1 | 9.6 | 0.01 | 0.33 | 0.33 | 94 | 1017.6 |
| 20260901171015 | 64 | 38 | 4.3 | 8.7 | 0.02 | 0.33 | 0.33 | 94 | 1017.6 |
| 20260901170504 | 64 | 36 | 3.5 | 5.2 | 0.03 | 0.33 | 0.33 | 95 | 1017.6 |